Year,Month,Day,Hour,Minute,Value (Times are PST for insolation in W/m^2)
2005,05,24,00,00,0.00
2005,05,24,00,01,0.00
2005,05,24,00,02,0.00
2005,05,24,00,03,0.00
2005,05,24,00,04,0.00
2005,05,24,00,05,0.00
2005,05,24,00,06,0.00
2005,05,24,00,07,0.00
2005,05,24,00,08,0.00
2005,05,24,00,09,0.00
2005,05,24,00,10,0.00
2005,05,24,00,11,0.00
2005,05,24,00,13,0.00
2005,05,24,00,14,0.00
2005,05,24,00,17,0.00
2005,05,24,00,18,0.00
2005,05,24,00,19,0.00
2005,05,24,00,20,0.00
2005,05,24,00,29,0.00
2005,05,24,00,33,0.00
2005,05,24,00,41,0.00
2005,05,24,00,45,0.00
2005,05,24,00,46,0.00
2005,05,24,00,47,0.00
2005,05,24,00,49,0.00
2005,05,24,00,52,0.00
2005,05,24,00,53,0.00
2005,05,24,00,55,0.00
2005,05,24,00,57,0.00
2005,05,24,00,58,0.00
2005,05,24,00,59,0.00
2005,05,24,01,03,0.00
2005,05,24,01,05,0.00
2005,05,24,01,06,0.00
2005,05,24,01,08,0.00
2005,05,24,01,09,0.00
2005,05,24,01,10,0.00
2005,05,24,01,11,0.00
2005,05,24,01,14,0.00
2005,05,24,01,17,0.00
2005,05,24,01,20,0.00
2005,05,24,01,22,0.00
2005,05,24,01,24,0.00
2005,05,24,01,27,0.00
2005,05,24,01,29,0.00
2005,05,24,01,31,0.00
2005,05,24,01,32,0.00
2005,05,24,01,34,0.00
2005,05,24,01,35,0.00
2005,05,24,01,36,0.00
2005,05,24,01,37,0.00
2005,05,24,01,38,0.00
2005,05,24,01,39,0.00
2005,05,24,01,40,0.00
2005,05,24,01,41,0.00
2005,05,24,01,42,0.00
2005,05,24,01,43,0.00
2005,05,24,01,44,0.00
2005,05,24,01,45,0.00
2005,05,24,01,46,0.00
2005,05,24,01,47,0.00
2005,05,24,01,48,0.00
2005,05,24,01,49,0.00
2005,05,24,01,50,0.00
2005,05,24,01,51,0.00
2005,05,24,01,52,0.00
2005,05,24,01,53,0.00
2005,05,24,01,54,0.00
2005,05,24,01,55,0.00
2005,05,24,01,56,0.00
2005,05,24,01,57,0.00
2005,05,24,01,58,0.00
2005,05,24,01,59,0.00
2005,05,24,02,00,0.00
2005,05,24,02,01,0.00
2005,05,24,02,02,0.00
2005,05,24,02,03,0.00
2005,05,24,02,04,0.00
2005,05,24,02,05,0.00
2005,05,24,02,06,0.00
2005,05,24,02,07,0.00
2005,05,24,02,08,0.00
2005,05,24,02,09,0.00
2005,05,24,02,10,0.00
2005,05,24,02,11,0.00
2005,05,24,02,12,0.00
2005,05,24,02,13,0.00
2005,05,24,02,14,0.00
2005,05,24,02,15,0.00
2005,05,24,02,16,0.00
2005,05,24,02,17,0.00
2005,05,24,02,18,0.00
2005,05,24,02,19,0.00
2005,05,24,02,20,0.00
2005,05,24,02,21,0.00
2005,05,24,02,22,0.00
2005,05,24,02,23,0.00
2005,05,24,02,24,0.00
2005,05,24,02,25,0.00
2005,05,24,02,26,0.00
2005,05,24,02,27,0.00
2005,05,24,02,28,0.00
2005,05,24,02,29,0.00
2005,05,24,02,30,0.00
2005,05,24,02,31,0.00
2005,05,24,02,32,0.00
2005,05,24,02,33,0.00
2005,05,24,02,34,0.00
2005,05,24,02,35,0.00
2005,05,24,02,36,0.00
2005,05,24,02,37,0.00
2005,05,24,02,38,0.00
2005,05,24,02,39,0.00
2005,05,24,02,40,0.00
2005,05,24,02,41,0.00
2005,05,24,02,42,0.00
2005,05,24,02,43,0.00
2005,05,24,02,44,0.00
2005,05,24,02,45,0.00
2005,05,24,02,46,0.00
2005,05,24,02,47,0.00
2005,05,24,02,48,0.00
2005,05,24,02,49,0.00
2005,05,24,02,50,0.00
2005,05,24,02,51,0.00
2005,05,24,02,52,0.00
2005,05,24,02,53,0.00
2005,05,24,02,54,0.00
2005,05,24,02,55,0.00
2005,05,24,02,56,0.00
2005,05,24,02,57,0.00
2005,05,24,02,58,0.00
2005,05,24,02,59,0.00
2005,05,24,03,00,0.00
2005,05,24,03,01,0.00
2005,05,24,03,02,0.00
2005,05,24,03,03,0.00
2005,05,24,03,04,0.00
2005,05,24,03,05,0.00
2005,05,24,03,06,0.00
2005,05,24,03,07,0.00
2005,05,24,03,08,0.00
2005,05,24,03,09,0.00
2005,05,24,03,10,0.00
2005,05,24,03,11,0.00
2005,05,24,03,12,0.00
2005,05,24,03,13,0.00
2005,05,24,03,14,0.00
2005,05,24,03,15,0.00
2005,05,24,03,16,0.00
2005,05,24,03,17,0.00
2005,05,24,03,18,0.00
2005,05,24,03,19,0.00
2005,05,24,03,20,0.00
2005,05,24,03,21,0.00
2005,05,24,03,22,0.00
2005,05,24,03,23,0.00
2005,05,24,03,24,0.00
2005,05,24,03,25,0.00
2005,05,24,03,26,0.00
2005,05,24,03,27,0.00
2005,05,24,03,28,0.00
2005,05,24,03,29,0.00
2005,05,24,03,30,0.00
2005,05,24,03,31,0.00
2005,05,24,03,32,0.00
2005,05,24,03,33,0.00
2005,05,24,03,34,0.00
2005,05,24,03,35,0.00
2005,05,24,03,36,0.00
2005,05,24,03,37,0.00
2005,05,24,03,38,0.00
2005,05,24,03,39,0.00
2005,05,24,03,40,0.00
2005,05,24,03,41,0.00
2005,05,24,03,42,0.00
2005,05,24,03,43,0.00
2005,05,24,03,44,0.00
2005,05,24,03,45,0.00
2005,05,24,03,46,0.00
2005,05,24,03,47,0.00
2005,05,24,03,48,0.00
2005,05,24,03,49,0.00
2005,05,24,03,50,0.00
2005,05,24,03,51,0.00
2005,05,24,03,52,0.00
2005,05,24,03,53,0.00
2005,05,24,03,54,0.00
2005,05,24,03,55,0.00
2005,05,24,03,56,0.00
2005,05,24,03,57,0.00
2005,05,24,03,58,0.00
2005,05,24,03,59,0.00
2005,05,24,04,00,0.00
2005,05,24,04,01,0.00
2005,05,24,04,02,0.00
2005,05,24,04,03,0.00
2005,05,24,04,04,0.00
2005,05,24,04,05,0.00
2005,05,24,04,06,0.00
2005,05,24,04,07,0.00
2005,05,24,04,08,0.00
2005,05,24,04,09,0.00
2005,05,24,04,10,0.00
2005,05,24,04,11,0.00
2005,05,24,04,12,0.00
2005,05,24,04,13,0.00
2005,05,24,04,14,0.00
2005,05,24,04,15,0.00
2005,05,24,04,16,0.00
2005,05,24,04,17,0.00
2005,05,24,04,18,0.00
2005,05,24,04,19,0.00
2005,05,24,04,20,0.00
2005,05,24,04,21,0.00
2005,05,24,04,22,0.00
2005,05,24,04,23,0.00
2005,05,24,04,24,0.00
2005,05,24,04,25,0.00
2005,05,24,04,26,0.00
2005,05,24,04,27,0.00
2005,05,24,04,28,0.00
2005,05,24,04,29,0.00
2005,05,24,04,30,0.00
2005,05,24,04,31,0.00
2005,05,24,04,32,0.00
2005,05,24,04,33,0.00
2005,05,24,04,34,0.00
2005,05,24,04,35,0.00
2005,05,24,04,36,0.00
2005,05,24,04,37,0.00
2005,05,24,04,38,0.00
2005,05,24,04,39,0.00
2005,05,24,04,40,0.00
2005,05,24,04,41,0.00
2005,05,24,04,42,0.00
2005,05,24,04,43,0.00
2005,05,24,04,44,0.00
2005,05,24,04,45,0.00
2005,05,24,04,46,0.00
2005,05,24,04,47,0.00
2005,05,24,04,48,0.00
2005,05,24,04,49,0.00
2005,05,24,04,50,0.00
2005,05,24,04,51,0.00
2005,05,24,04,52,0.00
2005,05,24,04,53,0.00
2005,05,24,04,54,0.00
2005,05,24,04,55,0.00
2005,05,24,04,56,0.00
2005,05,24,04,57,0.00
2005,05,24,04,58,0.00
2005,05,24,04,59,0.00
2005,05,24,05,00,0.00
2005,05,24,05,01,0.00
2005,05,24,05,02,0.00
2005,05,24,05,03,0.00
2005,05,24,05,04,0.00
2005,05,24,05,05,0.00
2005,05,24,05,06,0.00
2005,05,24,05,07,0.00
2005,05,24,05,08,0.00
2005,05,24,05,09,0.00
2005,05,24,05,10,0.00
2005,05,24,05,11,0.00
2005,05,24,05,12,0.00
2005,05,24,05,13,0.00
2005,05,24,05,14,0.00
2005,05,24,05,15,0.00
2005,05,24,05,16,0.00
2005,05,24,05,17,0.00
2005,05,24,05,18,0.00
2005,05,24,05,19,0.00
2005,05,24,05,20,0.00
2005,05,24,05,21,0.00
2005,05,24,05,22,2.30
2005,05,24,05,23,5.00
2005,05,24,05,24,5.00
2005,05,24,05,25,5.00
2005,05,24,05,26,5.30
2005,05,24,05,27,7.00
2005,05,24,05,28,7.00
2005,05,24,05,29,7.00
2005,05,24,05,30,7.00
2005,05,24,05,31,8.80
2005,05,24,05,32,9.00
2005,05,24,05,33,9.60
2005,05,24,05,34,11.00
2005,05,24,05,35,11.00
2005,05,24,05,36,11.80
2005,05,24,05,37,12.00
2005,05,24,05,38,12.30
2005,05,24,05,39,14.00
2005,05,24,05,40,15.00
2005,05,24,05,41,16.00
2005,05,24,05,42,17.60
2005,05,24,05,43,21.10
2005,05,24,05,44,27.20
2005,05,24,05,45,33.10
2005,05,24,05,46,36.00
2005,05,24,05,47,37.00
2005,05,24,05,48,37.00
2005,05,24,05,49,40.00
2005,05,24,05,50,42.90
2005,05,24,05,51,46.00
2005,05,24,05,52,43.90
2005,05,24,05,53,38.40
2005,05,24,05,54,37.00
2005,05,24,05,55,36.20
2005,05,24,05,56,28.00
2005,05,24,05,57,32.70
2005,05,24,05,58,47.90
2005,05,24,05,59,56.80
2005,05,24,06,00,65.40
2005,05,24,06,01,74.00
2005,05,24,06,02,76.80
2005,05,24,06,03,79.90
2005,05,24,06,04,82.70
2005,05,24,06,05,85.50
2005,05,24,06,06,89.50
2005,05,24,06,07,91.50
2005,05,24,06,08,95.00
2005,05,24,06,09,97.20
2005,05,24,06,10,102.40
2005,05,24,06,11,105.00
2005,05,24,06,12,108.60
2005,05,24,06,13,113.90
2005,05,24,06,14,118.90
2005,05,24,06,15,122.80
2005,05,24,06,16,126.80
2005,05,24,06,17,130.90
2005,05,24,06,18,134.80
2005,05,24,06,19,139.40
2005,05,24,06,20,141.40
2005,05,24,06,21,143.00
2005,05,24,06,22,145.20
2005,05,24,06,23,146.00
2005,05,24,06,24,148.00
2005,05,24,06,25,149.00
2005,05,24,06,26,149.70
2005,05,24,06,27,152.00
2005,05,24,06,28,153.00
2005,05,24,06,29,154.60
2005,05,24,06,30,155.00
2005,05,24,06,31,155.20
2005,05,24,06,32,156.00
2005,05,24,06,33,157.10
2005,05,24,06,34,159.40
2005,05,24,06,35,160.00
2005,05,24,06,36,161.70
2005,05,24,06,37,160.00
2005,05,24,06,38,160.00
2005,05,24,06,39,160.00
2005,05,24,06,40,160.00
2005,05,24,06,41,161.70
2005,05,24,06,42,162.10
2005,05,24,06,43,163.00
2005,05,24,06,44,163.00
2005,05,24,06,45,163.00
2005,05,24,06,46,168.90
2005,05,24,06,47,171.00
2005,05,24,06,48,174.30
2005,05,24,06,49,176.50
2005,05,24,06,50,178.00
2005,05,24,06,51,178.00
2005,05,24,06,52,183.20
2005,05,24,06,53,185.90
2005,05,24,06,54,190.30
2005,05,24,06,55,192.30
2005,05,24,06,56,193.00
2005,05,24,06,57,193.00
2005,05,24,06,58,198.40
2005,05,24,06,59,201.80
2005,05,24,07,00,203.10
2005,05,24,07,01,207.70
2005,05,24,07,02,210.00
2005,05,24,07,03,212.30
2005,05,24,07,04,215.30
2005,05,24,07,05,218.00
2005,05,24,07,06,220.00
2005,05,24,07,07,220.00
2005,05,24,07,08,223.80
2005,05,24,07,09,227.00
2005,05,24,07,10,230.90
2005,05,24,07,11,235.90
2005,05,24,07,12,237.50
2005,05,24,07,13,239.00
2005,05,24,07,14,239.00
2005,05,24,07,15,239.00
2005,05,24,07,16,248.50
2005,05,24,07,17,253.00
2005,05,24,07,18,255.50
2005,05,24,07,19,258.20
2005,05,24,07,20,261.10
2005,05,24,07,21,264.20
2005,05,24,07,22,268.50
2005,05,24,07,23,273.00
2005,05,24,07,24,277.60
2005,05,24,07,25,274.80
2005,05,24,07,26,281.40
2005,05,24,07,27,263.20
2005,05,24,07,28,269.80
2005,05,24,07,29,280.80
2005,05,24,07,30,292.00
2005,05,24,07,31,295.30
2005,05,24,07,32,299.00
2005,05,24,07,33,281.50
2005,05,24,07,34,253.40
2005,05,24,07,35,311.00
2005,05,24,07,36,312.30
2005,05,24,07,37,316.40
2005,05,24,07,38,319.20
2005,05,24,07,39,322.30
2005,05,24,07,40,327.00
2005,05,24,07,41,322.40
2005,05,24,07,42,268.60
2005,05,24,07,43,281.10
2005,05,24,07,44,337.30
2005,05,24,07,45,338.20
2005,05,24,07,46,338.10
2005,05,24,07,47,339.40
2005,05,24,07,48,341.70
2005,05,24,07,49,344.00
2005,05,24,07,50,345.00
2005,05,24,07,51,350.40
2005,05,24,07,52,353.10
2005,05,24,07,53,355.90
2005,05,24,07,54,359.40
2005,05,24,07,55,361.00
2005,05,24,07,56,363.40
2005,05,24,07,57,366.50
2005,05,24,07,58,367.50
2005,05,24,07,59,373.80
2005,05,24,08,00,376.80
2005,05,24,08,01,379.70
2005,05,24,08,02,382.40
2005,05,24,08,03,384.70
2005,05,24,08,04,388.40
2005,05,24,08,05,392.60
2005,05,24,08,06,395.30
2005,05,24,08,07,397.00
2005,05,24,08,08,401.20
2005,05,24,08,09,405.70
2005,05,24,08,10,401.20
2005,05,24,08,11,416.00
2005,05,24,08,12,420.50
2005,05,24,08,13,429.10
2005,05,24,08,14,438.40
2005,05,24,08,15,444.60
2005,05,24,08,16,407.80
2005,05,24,08,17,350.60
2005,05,24,08,18,392.50
2005,05,24,08,19,415.40
2005,05,24,08,20,462.20
2005,05,24,08,21,439.00
2005,05,24,08,22,496.10
2005,05,24,08,23,477.80
2005,05,24,08,24,496.20
2005,05,24,08,25,527.00
2005,05,24,08,26,468.30
2005,05,24,08,27,492.90
2005,05,24,08,28,508.40
2005,05,24,08,29,500.40
2005,05,24,08,30,514.00
2005,05,24,08,31,512.30
2005,05,24,08,32,506.80
2005,05,24,08,33,491.50
2005,05,24,08,34,441.00
2005,05,24,08,35,441.00
2005,05,24,08,36,472.60
2005,05,24,08,37,497.00
2005,05,24,08,38,500.10
2005,05,24,08,39,502.10
2005,05,24,08,40,514.10
2005,05,24,08,41,519.00
2005,05,24,08,42,528.00
2005,05,24,08,43,536.50
2005,05,24,08,44,540.50
2005,05,24,08,45,547.70
2005,05,24,08,46,554.30
2005,05,24,08,47,555.00
2005,05,24,08,48,557.30
2005,05,24,08,49,568.70
2005,05,24,08,50,573.00
2005,05,24,08,51,576.30
2005,05,24,08,52,596.50
2005,05,24,08,53,615.10
2005,05,24,08,54,624.90
2005,05,24,08,55,627.00
2005,05,24,08,56,661.50
2005,05,24,08,57,680.10
2005,05,24,08,58,687.00
2005,05,24,08,59,684.00
2005,05,24,09,00,726.50
2005,05,24,09,01,763.20
2005,05,24,09,02,770.00
2005,05,24,09,03,770.00
2005,05,24,09,04,770.00
2005,05,24,09,05,770.00
2005,05,24,09,06,770.00
2005,05,24,09,07,421.80
2005,05,24,09,08,313.00
2005,05,24,09,09,313.00
2005,05,24,09,10,290.40
2005,05,24,09,11,240.00
2005,05,24,09,12,224.80
2005,05,24,09,13,198.10
2005,05,24,09,14,193.00
2005,05,24,09,15,193.00
2005,05,24,09,16,193.00
2005,05,24,09,17,193.00
2005,05,24,09,18,193.00
2005,05,24,09,19,193.00
2005,05,24,09,20,189.80
2005,05,24,09,21,153.70
2005,05,24,09,22,146.60
2005,05,24,09,23,171.50
2005,05,24,09,24,183.00
2005,05,24,09,25,183.00
2005,05,24,09,26,580.10
2005,05,24,09,27,599.00
2005,05,24,09,28,599.00
2005,05,24,09,29,639.60
2005,05,24,09,30,673.50
2005,05,24,09,31,678.50
2005,05,24,09,32,684.00
2005,05,24,09,33,692.20
2005,05,24,09,34,719.30
2005,05,24,09,35,737.70
2005,05,24,09,36,751.70
2005,05,24,09,37,760.10
2005,05,24,09,38,768.70
2005,05,24,09,39,772.00
2005,05,24,09,40,772.00
2005,05,24,09,41,801.00
2005,05,24,09,42,828.30
2005,05,24,09,43,834.70
2005,05,24,09,44,839.40
2005,05,24,09,45,851.00
2005,05,24,09,46,851.00
2005,05,24,09,47,849.70
2005,05,24,09,48,778.60
2005,05,24,09,49,788.20
2005,05,24,09,50,791.00
2005,05,24,09,51,791.00
2005,05,24,09,52,791.00
2005,05,24,09,53,791.00
2005,05,24,09,54,791.00
2005,05,24,09,55,257.90
2005,05,24,09,56,239.50
2005,05,24,09,57,251.50
2005,05,24,09,58,276.80
2005,05,24,09,59,308.30
2005,05,24,10,00,284.70
2005,05,24,10,01,284.30
2005,05,24,10,02,307.00
2005,05,24,10,03,265.90
2005,05,24,10,04,264.50
2005,05,24,10,05,274.50
2005,05,24,10,06,332.50
2005,05,24,10,07,274.90
2005,05,24,10,08,247.90
2005,05,24,10,09,274.20
2005,05,24,10,10,280.60
2005,05,24,10,11,272.00
2005,05,24,10,12,244.00
2005,05,24,10,13,238.60
2005,05,24,10,14,233.10
2005,05,24,10,15,223.30
2005,05,24,10,16,223.40
2005,05,24,10,17,235.30
2005,05,24,10,18,256.20
2005,05,24,10,19,276.90
2005,05,24,10,20,306.90
2005,05,24,10,21,343.00
2005,05,24,10,22,343.00
2005,05,24,10,23,343.00
2005,05,24,10,24,342.70
2005,05,24,10,25,330.50
2005,05,24,10,26,306.70
2005,05,24,10,27,307.10
2005,05,24,10,28,307.30
2005,05,24,10,29,308.00
2005,05,24,10,30,308.00
2005,05,24,10,31,308.00
2005,05,24,10,32,308.00
2005,05,24,10,33,309.60
2005,05,24,10,34,311.00
2005,05,24,10,35,787.20
2005,05,24,10,36,893.00
2005,05,24,10,37,893.50
2005,05,24,10,38,891.00
2005,05,24,10,39,890.00
2005,05,24,10,40,902.00
2005,05,24,10,41,914.10
2005,05,24,10,42,932.30
2005,05,24,10,43,811.70
2005,05,24,10,44,468.00
2005,05,24,10,45,468.00
2005,05,24,10,46,789.10
2005,05,24,10,47,947.60
2005,05,24,10,48,956.30
2005,05,24,10,49,890.30
2005,05,24,10,50,933.70
2005,05,24,10,51,923.00
2005,05,24,10,52,923.00
2005,05,24,10,53,312.10
2005,05,24,10,54,336.00
2005,05,24,10,55,336.00
2005,05,24,10,56,617.90
2005,05,24,10,57,1041.50
2005,05,24,10,58,1053.00
2005,05,24,10,59,1053.00
2005,05,24,11,00,1132.00
2005,05,24,11,01,1132.00
2005,05,24,11,02,1132.00
2005,05,24,11,03,1132.00
2005,05,24,11,04,1132.00
2005,05,24,11,05,629.40
2005,05,24,11,06,554.00
2005,05,24,11,07,473.80
2005,05,24,11,08,298.50
2005,05,24,11,09,300.60
2005,05,24,11,10,304.00
2005,05,24,11,11,304.00
2005,05,24,11,12,302.50
2005,05,24,11,13,291.40
2005,05,24,11,14,287.80
2005,05,24,11,15,296.00
2005,05,24,11,16,297.00
2005,05,24,11,17,297.00
2005,05,24,11,18,460.40
2005,05,24,11,19,1005.80
2005,05,24,11,20,979.00
2005,05,24,11,21,965.00
2005,05,24,11,22,962.20
2005,05,24,11,23,966.10
2005,05,24,11,24,955.50
2005,05,24,11,25,939.60
2005,05,24,11,26,939.60
2005,05,24,11,27,929.80
2005,05,24,11,28,942.70
2005,05,24,11,29,951.40
2005,05,24,11,30,988.20
2005,05,24,11,31,1012.20
2005,05,24,11,32,1063.40
2005,05,24,11,33,1090.00
2005,05,24,11,34,1090.00
2005,05,24,11,35,1090.00
2005,05,24,11,36,1090.00
2005,05,24,11,37,1090.00
2005,05,24,11,38,995.70
2005,05,24,11,39,935.00
2005,05,24,11,40,470.50
2005,05,24,11,41,424.00
2005,05,24,11,42,424.00
2005,05,24,11,43,788.00
2005,05,24,11,44,1178.30
2005,05,24,11,45,1174.00
2005,05,24,11,46,1174.00
2005,05,24,11,47,1174.00
2005,05,24,11,48,933.50
2005,05,24,11,49,418.00
2005,05,24,11,50,418.00
2005,05,24,11,51,418.00
2005,05,24,11,52,412.30
2005,05,24,11,53,352.20
2005,05,24,11,54,368.60
2005,05,24,11,55,395.00
2005,05,24,11,56,394.00
2005,05,24,11,57,394.00
2005,05,24,11,58,394.00
2005,05,24,11,59,467.30
2005,05,24,12,00,779.00
2005,05,24,12,01,531.40
2005,05,24,12,02,325.00
2005,05,24,12,03,325.00
2005,05,24,12,04,325.00
2005,05,24,12,06,1074.00
2005,05,24,12,07,1074.00
2005,05,24,12,08,1074.00
2005,05,24,12,09,1074.00
2005,05,24,12,10,1062.70
2005,05,24,12,11,995.00
2005,05,24,12,12,1011.50
2005,05,24,12,13,1023.80
2005,05,24,12,14,1034.00
2005,05,24,12,15,1038.00
2005,05,24,12,16,1018.80
2005,05,24,12,17,1013.60
2005,05,24,12,18,1020.00
2005,05,24,12,19,1024.70
2005,05,24,12,20,1037.60
2005,05,24,12,21,1041.00
2005,05,24,12,22,1041.00
2005,05,24,12,23,1038.80
2005,05,24,12,24,1038.60
2005,05,24,12,25,1053.70
2005,05,24,12,26,1072.20
2005,05,24,12,27,1078.60
2005,05,24,12,28,1030.20
2005,05,24,12,29,1015.40
2005,05,24,12,30,1020.50
2005,05,24,12,31,1023.00
2005,05,24,12,32,1041.20
2005,05,24,12,33,1065.00
2005,05,24,12,34,1104.00
2005,05,24,12,35,1105.00
2005,05,24,12,36,1088.00
2005,05,24,12,37,1088.00
2005,05,24,12,38,1008.20
2005,05,24,12,39,989.90
2005,05,24,12,40,991.90
2005,05,24,12,41,999.70
2005,05,24,12,42,997.00
2005,05,24,12,43,937.30
2005,05,24,12,44,974.80
2005,05,24,12,45,1002.40
2005,05,24,12,46,1036.10
2005,05,24,12,47,1042.90
2005,05,24,12,48,1046.80
2005,05,24,12,49,1047.00
2005,05,24,12,50,1017.50
2005,05,24,12,51,1002.50
2005,05,24,12,52,1002.00
2005,05,24,12,53,1033.30
2005,05,24,12,54,1074.00
2005,05,24,12,55,441.30
2005,05,24,12,56,218.00
2005,05,24,12,57,319.70
2005,05,24,12,58,1002.90
2005,05,24,12,59,1028.60
2005,05,24,13,00,1052.30
2005,05,24,13,01,1057.20
2005,05,24,13,02,1058.00
2005,05,24,13,03,1071.00
2005,05,24,13,04,844.50
2005,05,24,13,05,276.80
2005,05,24,13,06,208.00
2005,05,24,13,07,190.00
2005,05,24,13,08,190.00
2005,05,24,13,09,200.40
2005,05,24,13,10,250.00
2005,05,24,13,11,250.00
2005,05,24,13,12,250.00
2005,05,24,13,13,840.10
2005,05,24,13,14,1008.10
2005,05,24,13,15,998.00
2005,05,24,13,16,998.00
2005,05,24,13,17,998.00
2005,05,24,13,18,998.00
2005,05,24,13,19,998.00
2005,05,24,13,20,977.00
2005,05,24,13,21,977.10
2005,05,24,13,22,981.00
2005,05,24,13,23,975.50
2005,05,24,13,24,968.00
2005,05,24,13,25,968.60
2005,05,24,13,26,968.40
2005,05,24,13,27,962.30
2005,05,24,13,28,961.80
2005,05,24,13,29,963.80
2005,05,24,13,30,963.50
2005,05,24,13,31,960.40
2005,05,24,13,32,961.90
2005,05,24,13,33,961.50
2005,05,24,13,34,957.70
2005,05,24,13,35,955.10
2005,05,24,13,36,956.00
2005,05,24,13,37,957.80
2005,05,24,13,38,953.00
2005,05,24,13,39,953.00
2005,05,24,13,40,953.00
2005,05,24,13,41,953.00
2005,05,24,13,42,953.70
2005,05,24,13,43,955.80
2005,05,24,13,44,956.00
2005,05,24,13,45,955.40
2005,05,24,13,46,954.00
2005,05,24,13,47,954.00
2005,05,24,13,48,953.20
2005,05,24,13,49,952.80
2005,05,24,13,50,949.00
2005,05,24,13,51,949.00
2005,05,24,13,52,950.00
2005,05,24,13,53,951.00
2005,05,24,13,54,953.30
2005,05,24,13,55,949.40
2005,05,24,13,56,951.00
2005,05,24,13,57,951.00
2005,05,24,13,58,952.60
2005,05,24,13,59,954.00
2005,05,24,14,00,954.00
2005,05,24,14,01,953.40
2005,05,24,14,02,948.00
2005,05,24,14,03,951.00
2005,05,24,14,04,948.40
2005,05,24,14,05,946.00
2005,05,24,14,06,944.40
2005,05,24,14,07,939.70
2005,05,24,14,08,942.90
2005,05,24,14,09,940.00
2005,05,24,14,10,940.00
2005,05,24,14,11,939.30
2005,05,24,14,12,937.30
2005,05,24,14,13,935.10
2005,05,24,14,14,935.50
2005,05,24,14,15,938.20
2005,05,24,14,16,941.20
2005,05,24,14,17,942.00
2005,05,24,14,18,935.60
2005,05,24,14,19,933.30
2005,05,24,14,20,934.40
2005,05,24,14,21,933.00
2005,05,24,14,22,933.00
2005,05,24,14,23,934.50
2005,05,24,14,24,930.70
2005,05,24,14,25,931.70
2005,05,24,14,26,927.10
2005,05,24,14,27,923.40
2005,05,24,14,28,925.40
2005,05,24,14,29,925.00
2005,05,24,14,30,923.20
2005,05,24,14,31,922.50
2005,05,24,14,32,921.00
2005,05,24,14,33,921.00
2005,05,24,14,34,921.00
2005,05,24,14,35,918.70
2005,05,24,14,36,916.30
2005,05,24,14,37,917.50
2005,05,24,14,38,916.00
2005,05,24,14,39,915.00
2005,05,24,14,40,912.60
2005,05,24,14,41,911.20
2005,05,24,14,42,907.00
2005,05,24,14,43,905.00
2005,05,24,14,44,904.60
2005,05,24,14,45,904.00
2005,05,24,14,46,904.70
2005,05,24,14,47,904.20
2005,05,24,14,48,900.00
2005,05,24,14,49,898.50
2005,05,24,14,50,899.30
2005,05,24,14,51,897.00
2005,05,24,14,52,893.80
2005,05,24,14,53,894.60
2005,05,24,14,54,894.70
2005,05,24,14,55,892.50
2005,05,24,14,56,890.20
2005,05,24,14,57,890.10
2005,05,24,14,58,889.50
2005,05,24,14,59,888.10
2005,05,24,15,00,887.70
2005,05,24,15,01,886.00
2005,05,24,15,02,885.10
2005,05,24,15,03,884.00
2005,05,24,15,04,882.50
2005,05,24,15,05,877.40
2005,05,24,15,06,876.60
2005,05,24,15,07,874.70
2005,05,24,15,08,873.00
2005,05,24,15,09,870.70
2005,05,24,15,10,868.50
2005,05,24,15,11,868.00
2005,05,24,15,12,866.90
2005,05,24,15,13,863.00
2005,05,24,15,14,862.00
2005,05,24,15,15,860.40
2005,05,24,15,16,860.00
2005,05,24,15,17,859.70
2005,05,24,15,18,856.00
2005,05,24,15,19,856.00
2005,05,24,15,20,856.00
2005,05,24,15,21,854.70
2005,05,24,15,22,853.20
2005,05,24,15,23,850.90
2005,05,24,15,24,849.00
2005,05,24,15,25,848.20
2005,05,24,15,26,846.50
2005,05,24,15,27,843.20
2005,05,24,15,28,842.00
2005,05,24,15,29,838.40
2005,05,24,15,30,839.20
2005,05,24,15,31,836.30
2005,05,24,15,32,835.00
2005,05,24,15,33,832.20
2005,05,24,15,34,831.00
2005,05,24,15,35,829.80
2005,05,24,15,36,827.40
2005,05,24,15,37,825.10
2005,05,24,15,38,824.00
2005,05,24,15,39,821.80
2005,05,24,15,40,821.00
2005,05,24,15,41,817.00
2005,05,24,15,42,817.00
2005,05,24,15,43,816.50
2005,05,24,15,44,814.80
2005,05,24,15,45,814.00
2005,05,24,15,46,810.30
2005,05,24,15,47,808.60
2005,05,24,15,48,806.40
2005,05,24,15,49,805.00
2005,05,24,15,50,803.70
2005,05,24,15,51,802.20
2005,05,24,15,52,801.90
2005,05,24,15,53,799.70
2005,05,24,15,54,797.30
2005,05,24,15,55,794.40
2005,05,24,15,56,793.00
2005,05,24,15,57,789.80
2005,05,24,15,58,787.90
2005,05,24,15,59,784.00
2005,05,24,16,00,783.30
2005,05,24,16,01,781.00
2005,05,24,16,02,779.30
2005,05,24,16,03,779.00
2005,05,24,16,04,775.00
2005,05,24,16,05,772.20
2005,05,24,16,06,769.20
2005,05,24,16,07,767.00
2005,05,24,16,08,766.00
2005,05,24,16,09,763.40
2005,05,24,16,10,760.90
2005,05,24,16,11,758.70
2005,05,24,16,12,756.30
2005,05,24,16,13,754.00
2005,05,24,16,14,752.50
2005,05,24,16,15,749.40
2005,05,24,16,16,746.70
2005,05,24,16,17,745.00
2005,05,24,16,18,743.80
2005,05,24,16,19,740.90
2005,05,24,16,20,738.60
2005,05,24,16,21,738.00
2005,05,24,16,22,732.50
2005,05,24,16,23,728.70
2005,05,24,16,24,727.10
2005,05,24,16,25,726.00
2005,05,24,16,26,722.90
2005,05,24,16,27,721.10
2005,05,24,16,28,718.30
2005,05,24,16,29,715.00
2005,05,24,16,30,714.50
2005,05,24,16,31,712.70
2005,05,24,16,32,709.00
2005,05,24,16,33,707.90
2005,05,24,16,34,705.00
2005,05,24,16,35,703.60
2005,05,24,16,36,700.50
2005,05,24,16,37,697.40
2005,05,24,16,38,696.00
2005,05,24,16,39,691.20
2005,05,24,16,40,690.10
2005,05,24,16,41,686.60
2005,05,24,16,42,685.00
2005,05,24,16,43,682.60
2005,05,24,16,44,680.40
2005,05,24,16,45,677.00
2005,05,24,16,46,674.50
2005,05,24,16,47,672.30
2005,05,24,16,48,671.00
2005,05,24,16,49,667.60
2005,05,24,16,50,664.30
2005,05,24,16,51,662.80
2005,05,24,16,52,660.00
2005,05,24,16,53,656.60
2005,05,24,16,54,654.90
2005,05,24,16,55,651.20
2005,05,24,16,56,647.40
2005,05,24,16,57,646.50
2005,05,24,16,58,642.70
2005,05,24,16,59,641.10
2005,05,24,17,00,638.90
2005,05,24,17,01,635.80
2005,05,24,17,02,633.30
2005,05,24,17,03,629.00
2005,05,24,17,04,628.20
2005,05,24,17,05,626.00
2005,05,24,17,06,626.00
2005,05,24,17,07,621.00
2005,05,24,17,08,615.50
2005,05,24,17,09,612.80
2005,05,24,17,10,610.50
2005,05,24,17,11,606.90
2005,05,24,17,12,605.40
2005,05,24,17,13,602.00
2005,05,24,17,14,598.20
2005,05,24,17,15,595.60
2005,05,24,17,16,592.20
2005,05,24,17,17,589.00
2005,05,24,17,18,586.60
2005,05,24,17,19,584.20
2005,05,24,17,20,581.70
2005,05,24,17,21,577.80
2005,05,24,17,22,575.70
2005,05,24,17,23,571.60
2005,05,24,17,24,568.60
2005,05,24,17,25,566.30
2005,05,24,17,26,563.00
2005,05,24,17,27,560.50
2005,05,24,17,28,557.40
2005,05,24,17,29,553.40
2005,05,24,17,30,549.30
2005,05,24,17,31,547.20
2005,05,24,17,32,544.70
2005,05,24,17,33,540.20
2005,05,24,17,34,538.00
2005,05,24,17,35,537.00
2005,05,24,17,36,533.90
2005,05,24,17,37,529.50
2005,05,24,17,38,526.60
2005,05,24,17,39,523.50
2005,05,24,17,40,521.20
2005,05,24,17,41,518.40
2005,05,24,17,42,515.60
2005,05,24,17,43,512.40
2005,05,24,17,44,509.50
2005,05,24,17,45,505.40
2005,05,24,17,46,503.50